Terug naar catalogus

DELTA 1 DEB

ActiefSSO
NORAD 13563·DEBRIS·🇺🇸 United States

Gelanceerd Mar 5, 1978 vanaf Vandenberg Space Force Base

Loading…

Volgende Passages (komende 24 uur)

TLE

VersSource: Space-Track

Epoch: Sep 13, 2026, 00:56 UTC

1 13563U 78026FA  26256.03912692  .00000170  00000-0  95607-4 0  9993
2 13563  98.8559 280.4081 0043746  62.7153 352.2796 14.22314310295488

Volg DELTA 1 DEB in realtime met AllMySat

Download on the App Store